SCP
2 3 3 3 3 3 3 2 2 2 2 2 2 2 2 2 2 2 2 2 2 2 2 2 2 2 2 2 2 2 1 1 1 1 1 1 1 1 1 1 0 0 0
2 2 3 3 3 3 2 2 2 2 2 2 2 2 2 2 2 2 2 2 2 2 2 2 2 2 2 2 2 1 1 1 1 1 1 1 1 0 0 0 0 0 0
2 2 2 2 2 2 2 2 2 2 2 2 2 2 2 2 2 2 2 2 2 2 2 2 2 2 1 1 1 1 1 1 1 1 1 0 0 0 0 0 0 0 0
1 1 1 1 1 1 1 1 1 1 2 2 2 2 2 2 2 1 1 1 1 1 1 1 1 1 1 1 1 1 1 1 0 0 0 0 0 0 0 0 0 0 0
1 1 1 1 1 1 1 1 1 1 1 2 2 1 1 1 1 1 1 1 1 1 1 1 1 1 0 0 0 0 0 0 0 0 0 0 0 0 0 0 0 0 0
1 0 0 0 0 0 0 1 1 1 1 1 1 1 1 1 1 1 0 0 0 0 0 0 0 0 0 0 0 0 0 0 0 0 0 0 0 0 0 0 0 0 0
0 0 0 0 0 0 0 0 0 1 1 1 1 1 1 1 0 0 0 0 0 0 0 0 0 0 0 0 0 0 0 0 0 0 0 0 0 0 0 0 0 0 0
0 0 0 0 0 0 0 0 0 0 0 0 0 0 0 0 0 0 0 0 0 0 0 0 0 0 0 0 0 0 0 0 0 0 0 0 0 0 0 0 0 0 0
0 0 0 0 0 0 0 0 0 0 0 0 0 0 0 0 0 0 0 0 0 0 0 0 0 0 0 0 0 0 0 0 0 0 0 0 0 0 0 0 0 0 0
0 0 0 0 0 0 0 0 0 0 0 0 0 0 0 0 0 0 0 0 0 0 0 0 0 0 0 0 0 0 0 0 0 0 0 0 0 0 0 0 0 0 0
0 0 0 0 0 0 0 0 0 0 0 0 0 0 0 0 0 0 0 0 0 0 0 0 0 0 0 0 0 0 0 0 0 0 0 0 0 0 0 0 0 0 0
0 0 0 0 0 0 0 0 0 0 0 0 0 0 0 0 0 0 0 0 0 0 0 0 0 0 0 0 0 0 0 0 0 0 0 0 0 0 0 0 0 0 0
0 0 0 0 0 0 0 0 0 0 0 0 0 0 0 0 0 0 0 0 0 0 0 0 0 0 0 0 0 0 0 0 0 0 0 0 0 0 0 0 0 0 0
0 0 0 0 0 0 0 0 0 0 0 0 0 0 0 0 0 0 0 0 0 0 0 0 0 0 0 0 0 0 0 0 0 0 0 0 0 0 0 0 0 0 0
0 0 0 0 0 0 0 0 0 0 0 0 0 0 0 0 0 0 0 0 0 0 0 0 0 0 0 0 0 0 0 0 0 0 0 0 0 0 0 0 0 0 0
0 0 0 0 0 0 0 0 0 0 0 0 0 0 0 0 0 0 0 0 0 0 0 0 0 0 0 0 0 0 0 0 0 0 0 0 0 0 0 0 0 0 0
0 0 0 0 0 0 0 0 0 0 0 0 0 0 0 0 0 0 0 0 0 0 0 0 0 0 0 0 0 0 0 0 0 0 0 0 0 0 0 0 0 0 0
0 0 0 0 0 0 0 0 0 0 0 0 0 0 0 0 0 0 0 0 0 0 0 0 0 0 0 0 0 0 0 0 0 0 0 0 0 0 0 0 0 0 0
0 0 0 0 0 0 0 0 0 0 0 0 0 0 0 0 0 0 0 0 0 0 0 0 0 0 0 0 0 0 0 0 0 0 0 0 0 0 0 0 0 0 0
0 0 0 0 0 0 0 0 0 0 0 0 0 0 0 0 0 0 0 0 0 0 0 0 0 0 0 0 0 0 0 0 0 0 0 0 0 0 0 0 0 0 0
0 0 0 0 0 0 0 0 0 0 0 0 0 0 0 0 0 0 0 0 0 0 0 0 0 0 0 0 0 0 0 0 0 0 0 0 0 0 0 0 0 0 0
0 0 0 0 0 0 0 0 0 0 0 0 0 0 0 0 0 0 0 0 0 0 0 0 0 0 0 0 0 0 0 0 0 0 0 0 0 0 0 0 0 0 0
0 0 0 0 0 0 0 0 0 0 0 0 0 0 0 0 0 0 0 0 0 0 0 0 0 0 0 0 0 0 0 0 0 0 0 0 0 0 0 0 0 0 0
0 0 0 0 0 0 0 0 0 0 0 0 0 0 0 0 0 0 0 0 0 0 0 0 0 0 0 0 0 0 0 0 0 0 0 0 0 0 0 0 0 0 0
0 0 0 0 0 0 0 0 0 0 0 0 0 0 0 0 0 0 0 0 0 0 0 0 0 0 0 0 0 0 0 0 0 0 0 0 0 0 0 0 0 0 0
0 0 0 0 0 0 0 0 0 0 0 0 0 0 0 0 0 0 0 0 0 0 0 0 0 0 0 0 0 0 0 0 0 0 0 0 0 0 0 0 0 0 0
Wind_Speed
8 9 11 10 8 9 7 5 4 3 2 2 3 4 3 2 2 3 4 4 3 3 3 1 1 1 1 1 1 1 0 1 1 2 2 2 1 1 1 1 2 3 4
10 11 12 10 10 8 6 5 4 3 2 1 1 2 3 3 3 3 5 4 4 3 2 2 2 1 2 3 2 1 1 1 1 1 1 1 0 0 1 2 2 3 3
13 12 12 11 11 10 8 5 5 4 3 3 2 2 2 2 3 4 4 6 7 6 5 5 4 4 4 3 3 3 2 1 1 0 1 1 1 1 1 2 3 3 3
12 12 12 11 11 9 9 8 7 6 5 3 3 3 3 3 3 5 6 8 9 8 8 7 6 5 5 4 4 4 2 2 1 1 1 1 2 1 1 1 2 2 2
13 13 11 11 11 10 9 9 9 9 8 6 5 5 5 6 6 7 9 9 8 9 9 8 7 7 6 6 6 6 6 5 4 3 2 2 2 2 1 1 1 1 1
13 11 10 11 11 11 11 11 11 12 10 10 10 9 9 9 9 9 8 8 7 8 9 9 7 8 7 7 6 6 7 6 5 4 4 3 2 2 2 1 1 1 1
11 10 11 12 12 13 13 12 12 12 12 13 13 12 12 11 11 9 8 8 7 7 8 8 7 7 7 7 6 7 7 7 6 5 4 3 3 2 2 2 2 2 1
12 12 12 12 12 13 12 12 13 13 13 14 14 13 12 10 9 11 10 9 8 8 8 8 8 8 8 7 6 6 6 6 6 7 5 4 4 3 3 2 2 3 2
12 13 12 12 12 13 13 13 13 13 13 14 14 13 13 13 12 12 11 9 8 8 9 9 9 9 8 8 7 6 6 6 6 6 6 4 4 4 3 3 2 2 3
12 12 11 12 12 12 12 13 13 13 13 13 12 12 13 13 12 11 12 10 9 8 8 8 8 8 8 7 6 5 6 6 5 3 5 4 3 3 3 3 3 2 2
11 11 11 11 11 11 12 12 12 13 13 13 13 13 12 11 11 10 10 9 8 7 7 7 7 7 7 6 5 5 6 6 5 5 5 5 4 4 3 4 3 3 3
11 11 11 10 10 11 11 11 11 12 12 12 11 11 10 10 10 10 9 8 7 6 6 6 6 7 6 6 6 6 6 5 5 5 5 5 4 4 4 4 3 3 3
11 11 10 10 10 10 10 10 10 10 10 11 11 10 9 9 9 8 7 6 6 6 6 6 6 7 7 7 6 6 5 5 4 4 4 4 5 5 4 4 4 4 4
11 10 10 9 9 9 9 9 9 9 9 9 9 8 8 7 7 6 6 6 6 6 6 6 7 8 9 9 9 7 5 5 4 4 4 4 5 5 6 5 5 5 5
11 10 9 9 9 8 8 8 8 8 8 8 8 8 7 6 6 6 5 5 5 6 6 6 7 7 8 9 10 9 6 4 4 3 3 3 4 3 3 4 5 5 5
11 10 10 9 8 7 7 7 7 6 6 7 8 7 6 6 5 5 5 5 6 5 5 6 7 8 8 8 11 9 8 6 4 4 4 2 3 2 3 5 7 6 5
11 10 9 8 7 6 5 6 6 6 6 6 6 6 5 5 4 5 5 5 5 4 5 6 7 7 6 8 10 12 8 6 3 3 4 5 5 6 7 8 8 7 7
10 10 8 7 6 5 5 5 5 5 6 5 6 6 5 5 4 5 5 4 4 4 4 5 5 5 6 8 10 14 8 4 3 2 2 3 4 6 7 8 7 6 5
9 9 8 7 5 4 4 4 5 5 5 5 5 5 4 4 4 4 4 4 3 3 3 4 4 5 4 6 9 12 6 3 4 3 4 4 4 5 7 7 7 7 6
9 8 7 7 5 3 3 4 5 5 5 5 5 5 4 4 4 4 3 3 2 3 3 4 4 4 4 3 7 10 6 6 5 3 2 3 3 6 7 6 6 7 7
9 8 7 6 4 4 4 4 5 5 5 5 4 4 3 3 4 3 3 3 3 3 2 2 3 3 3 1 3 6 5 6 7 5 3 2 3 8 8 7 5 7 8
8 7 6 6 4 4 4 5 5 4 4 3 3 3 2 2 4 3 2 2 2 1 1 2 2 2 3 2 2 5 6 5 6 5 5 5 9 11 12 8 8 11 10
7 6 6 6 4 4 4 5 4 3 2 3 2 2 3 3 2 2 1 1 2 2 3 3 3 2 2 1 3 7 8 8 5 5 9 11 13 12 8 7 9 8 5
7 6 7 6 5 4 5 3 2 2 2 2 1 1 2 2 3 3 4 4 5 5 4 4 3 2 3 5 6 7 7 8 6 7 10 12 11 8 8 7 5 3 3
7 6 5 6 6 5 4 3 2 2 2 1 0 0 1 2 3 4 4 5 5 4 4 5 5 5 5 5 5 5 6 7 7 9 7 5 4 3 2 3 3 3 3
7 6 6 5 5 5 4 3 2 1 1 1 1 0 1 1 2 4 4 7 5 4 3 3 3 2 3 7 9 9 11 12 10 7 5 4 4 5 5 4 4 4 4
Wind_Direction
72 63 62 60 65 71 78 78 92 99 110 146 168 173 169 152 115 94 91 87 81 85 99 113 108 99 92 67 46 347 337 350 345 309 301 301 347 7 17 30 25 26 33
66 63 59 62 59 57 65 70 70 89 96 104 138 155 148 135 121 101 87 81 76 65 86 71 66 67 63 49 39 20 13 34 31 332 303 293 296 288 55 48 45 37 36
63 57 54 53 54 47 40 46 46 54 64 81 95 98 100 107 100 94 79 61 61 59 56 63 59 55 65 64 47 33 29 16 18 52 275 280 276 312 83 64 53 46 40
67 58 54 50 50 47 49 45 41 44 50 77 106 117 119 111 87 85 82 68 60 61 60 61 63 61 57 58 53 48 38 44 23 25 24 24 27 342 14 50 39 41 55
70 60 54 50 50 48 49 51 47 43 44 52 69 84 90 89 84 79 77 71 61 57 56 58 62 63 57 52 53 51 51 51 42 31 16 14 19 17 18 358 359 3 30
75 67 61 56 50 47 47 50 48 43 42 51 57 66 77 86 87 80 78 74 66 58 56 59 60 62 60 52 50 52 55 55 56 49 36 26 26 20 12 351 333 341 316
84 73 60 55 51 48 47 50 53 49 47 53 56 63 70 74 77 77 77 76 69 61 54 58 58 58 58 58 55 56 52 49 52 50 41 33 36 22 7 7 346 324 304
78 71 64 60 58 55 53 54 58 57 56 59 61 61 64 69 70 69 73 71 69 64 59 58 58 55 52 52 53 57 51 48 46 48 38 25 27 19 24 15 354 338 334
79 75 69 63 62 60 58 59 62 62 62 65 68 66 66 70 73 72 72 72 69 70 64 62 59 55 52 49 55 60 53 50 44 43 41 26 18 14 11 11 1 350 338
83 77 71 68 67 67 65 64 65 68 67 67 69 73 70 71 74 75 74 74 72 70 68 65 62 58 54 47 51 58 50 53 43 39 45 33 19 6 360 355 352 356 345
92 84 78 74 73 72 72 71 70 70 69 69 72 73 74 74 75 76 76 77 76 74 72 68 67 63 57 50 47 51 49 46 38 27 28 23 23 15 358 359 359 5 4
96 92 87 82 77 74 72 73 73 75 76 76 76 77 78 78 80 79 77 77 78 75 72 69 68 65 58 45 43 43 43 41 40 31 18 10 15 12 9 354 354 354 343
102 96 88 82 79 78 77 76 77 78 81 83 83 82 82 82 83 84 84 81 76 72 69 66 63 58 51 38 31 34 35 35 35 26 14 10 17 15 4 343 356 346 345
107 100 93 87 84 83 82 83 82 84 87 88 88 85 84 85 85 85 81 78 75 70 64 61 60 57 46 31 18 11 21 25 25 22 15 23 31 24 356 347 3 350 339
111 105 101 97 93 90 86 86 87 86 89 89 86 84 84 83 83 80 76 72 71 72 65 63 61 63 56 29 15 354 1 5 8 10 12 32 67 50 349 355 348 340 334
114 108 103 100 97 95 97 96 93 92 90 91 90 90 89 86 82 79 72 67 64 62 61 63 63 57 49 23 13 4 343 341 1 8 1 3 101 3 331 315 304 295 305
117 113 108 101 97 93 94 95 95 94 91 92 94 92 87 82 77 75 71 65 64 63 61 66 77 75 51 16 3 357 330 321 349 3 358 1 33 28 2 338 318 298 271
115 110 107 102 95 91 91 95 97 98 95 91 90 87 82 76 70 65 63 57 55 54 62 68 79 84 56 17 3 347 321 317 343 355 8 15 41 31 358 332 329 323 319
111 110 109 109 107 106 108 110 104 98 95 90 82 77 72 68 63 60 58 53 48 48 64 68 73 88 76 22 2 349 320 346 357 1 29 19 35 25 353 332 331 331 332
112 115 117 114 116 116 108 100 97 94 89 84 77 70 59 56 58 54 47 49 46 41 52 65 67 75 78 36 1 353 344 358 353 357 60 75 10 345 341 331 326 324 329
120 124 125 121 124 121 107 100 99 92 85 81 78 73 63 65 66 55 43 33 38 43 41 59 87 90 84 96 341 351 353 354 343 344 354 56 343 329 325 315 293 301 313
125 127 125 122 119 113 108 103 93 87 85 82 73 65 47 45 69 63 51 32 8 25 57 58 69 107 121 67 351 323 319 312 320 331 346 346 326 320 313 304 294 307 311
125 128 126 119 116 115 108 104 103 106 98 80 65 57 59 54 46 40 43 32 18 21 32 40 39 43 62 82 329 319 312 310 305 322 323 312 305 306 301 289 297 302 296
132 138 134 128 125 122 113 111 114 98 79 68 56 50 89 87 58 36 22 32 25 20 18 31 24 21 46 32 8 348 345 348 350 344 319 308 298 287 285 298 299 289 305
138 141 137 132 127 122 123 131 118 91 70 34 281 89 84 83 85 73 44 40 60 45 17 11 7 13 20 13 341 330 332 336 336 326 307 313 327 336 335 336 334 328 333
139 138 135 131 132 135 133 125 114 101 66 353 321 35 105 113 127 133 115 60 81 101 73 37 358 9 14 332 329 328 320 315 319 320 316 336 350 360 1 358 352 346 347